Home   Weather   Kamp-Lintfort   Past weeks

Flag for Germany Past Weather in Kamp-Lintfort, North Rhine-Westphalia, Germany — Yesterday and Last 2 Weeks

Now
32 °F

Passing clouds.


Feels Like: 25 °F
Forecast: 26 / 38 °F
Wind: 8 mph from South

Location: Duesseldorf

Current Time: Dec 5, 2016 at 5:32:34 am

Latest Report: Dec 5, 2016 at 4:50 am


Visibility: N/A

Pressure: 30.30 "Hg

Humidity: 64%

Dew Point: 21 °F

Location of Kamp-LintfortLocation

Past Weather in Kamp-Lintfort — Graph

°F

Kamp-Lintfort Temperature Yesterday

Maximum temperature yesterday: 43 °F (at 1:50 pm)
Minimum temperature yesterday: 18 °F (at 7:50 am)
Average temperature yesterday: 28 °F

High & Low Weather Summary for the Past Weeks

 TemperatureHumidityPressure
High59 °F (Nov 20, 1:50 pm)100% (Nov 23, 4:50 am)30.60 "Hg (Nov 23, 4:50 am)
Low18 °F (Dec 4, 7:50 am)45% (Nov 29, 2:50 pm)29.30 "Hg (Nov 20, 11:20 am)
Average41 °F83%30.14 "Hg
* Reported Nov 20 4:20 am — Dec 5 4:20 am, Kamp-Lintfort, Weather by CustomWeather, © 2016

Note: Actual official high and low records may vary slightly from our data, if they occured in-between our weather recording intervals... More about our weather records

Advertising

Kamp-Lintfort Weather History for the Previous 24 Hours

Scroll right to see more
 ConditionsComfort  
Time TempWeatherWind HumidityBarometerVisibility
4:20 am
Mon, Dec 5
34 °FClear.10 mph60%30.30 "Hg10 mi
3:50 am34 °FClear.12 mph60%30.30 "Hg10 mi
3:20 am32 °FPassing clouds.8 mph64%30.30 "HgN/A
2:50 am32 °FClear.9 mph64%30.30 "Hg10 mi
2:20 am32 °FClear.7 mph64%30.30 "Hg10 mi
1:50 am30 °FClear.7 mph69%30.30 "Hg10 mi
1:20 am32 °FClear.9 mph64%30.30 "Hg10 mi
12:50 am32 °FClear.9 mph60%30.33 "Hg10 mi
12:20 am32 °FClear.8 mph64%30.33 "Hg10 mi
11:50 pm
Sun, Dec 4
32 °FClear.9 mph64%30.33 "Hg10 mi
11:20 pm32 °FClear.9 mph64%30.33 "Hg10 mi
10:50 pm32 °FClear.7 mph64%30.33 "Hg10 mi
10:20 pm30 °FClear.6 mph64%30.33 "Hg10 mi
9:50 pm27 °FClear.6 mph86%30.33 "Hg10 mi
9:20 pm25 °FPassing clouds.3 mph93%30.33 "HgN/A
8:50 pm27 °FPassing clouds.3 mph93%30.33 "HgN/A
8:20 pm27 °FClear.2 mph86%30.33 "Hg10 mi
7:50 pm28 °FPassing clouds.5 mph86%30.33 "HgN/A
7:20 pm30 °FPassing clouds.5 mph75%30.33 "HgN/A
6:50 pm30 °FClear.5 mph86%30.33 "Hg10 mi
6:20 pm30 °FClear.3 mph80%30.33 "Hg10 mi
5:50 pm30 °FClear.3 mph80%30.33 "Hg10 mi
5:20 pm28 °FClear.2 mph93%30.33 "Hg10 mi
4:50 pm32 °FClear.2 mph80%30.33 "Hg10 mi
4:20 pm36 °FSunny.2 mph75%30.33 "Hg10 mi
3:50 pm41 °FSunny.3 mph57%30.33 "Hg10 mi
3:20 pm41 °FSunny.2 mph57%30.33 "Hg10 mi
2:50 pm41 °FSunny.2 mph57%30.33 "Hg10 mi
2:20 pm41 °FSunny.2 mph57%30.33 "Hg10 mi
1:50 pm43 °FSunny.1 mph57%30.33 "Hg10 mi
1:20 pm41 °FSunny.2 mph61%30.33 "Hg10 mi
12:50 pm39 °FPassing clouds.3 mph70%30.33 "HgN/A
12:20 pm37 °FSunny.2 mph81%30.36 "Hg10 mi
11:50 am34 °FSunny.1 mph87%30.36 "Hg10 mi
11:20 am30 °FSunny.2 mph100%30.36 "Hg10 mi
10:50 am30 °FSunny.2 mph93%30.36 "Hg10 mi
10:20 am28 °FSunny.2 mph93%30.36 "Hg10 mi
9:50 am25 °FSunny.2 mph100%30.36 "Hg10 mi
9:20 am23 °FSunny.2 mph93%30.36 "Hg10 mi
8:50 am19 °FSunny.2 mph93%30.36 "Hg10 mi
8:20 am19 °FSunny.2 mph93%30.33 "Hg10 mi
7:50 am18 °FClear.1 mph100%30.33 "Hg10 mi
7:20 am19 °FClear.1 mph93%30.33 "Hg10 mi
6:50 am19 °FClear.2 mph93%30.33 "Hg10 mi
6:20 am19 °FLight fog.1 mph93%30.33 "HgN/A
5:50 am19 °FPassing clouds.1 mph93%30.33 "HgN/A
5:20 am19 °FClear.No wind93%30.33 "Hg10 mi
Weather by CustomWeather, © 2016

See weather overviewHow to use our weather pages